CW5437 Weather Reports


time (UTC)temp
F
wind
direction
speed
knots
gust
knots
rain 1hr
in
rain 24hr
in
rain mn
in
humidity
%
barometer
mb
20260507213006 54 273 5.2 13.0 0.00 0.00 0.00 40 1011.4
20260507212006 53 228 7.8 19.1 0.00 0.00 0.00 40 1011.5
20260507211007 54 318 6.1 10.4 0.00 0.00 0.00 40 1011.4
20260507205006 55 318 6.1 12.2 0.00 0.00 0.00 40 1011.4
20260507204007 56 250 5.2 11.3 0.00 0.00 0.00 39 1011.4
20260507203007 55 318 5.2 9.6 0.00 0.00 0.00 43 1011.5
20260507202008 55 318 5.2 10.4 0.00 0.00 0.00 41 1011.6
20260507201003 54 295 7.0 12.2 0.00 0.00 0.00 44 1011.5
20260507200003 54 340 2.6 5.2 0.00 0.00 0.00 46 1011.5
20260507194003 53 273 4.3 12.2 0.00 0.00 0.00 46 1011.7
20260507193003 53 318 5.2 14.8 0.00 0.00 0.00 47 1011.7
20260507192003 53 273 3.5 8.7 0.00 0.00 0.00 45 1011.8
20260507191004 54 273 4.3 10.4 0.00 0.00 0.00 45 1012.0
20260507190005 53 273 7.0 10.4 0.00 0.00 0.00 45 1012.0
20260507184004 53 250 5.2 9.6 0.00 0.00 0.00 45 1012.1
20260507183005 54 273 3.5 7.8 0.00 0.00 0.00 46 1012.0
20260507182005 55 295 4.3 6.1 0.00 0.00 0.00 46 1012.0
20260507181005 55 318 3.5 8.7 0.00 0.00 0.00 47 1012.1
20260507180006 55 273 4.3 10.4 0.00 0.00 0.00 44 1012.2
20260507175007 54 250 10.4 13.9 0.00 0.00 0.00 46 1012.3
20260507173006 52 318 4.3 11.3 0.00 0.00 0.00 46 1012.3
20260507172007 52 295 3.5 6.1 0.00 0.00 0.00 47 1012.4
20260507170006 54 273 7.0 10.4 0.00 0.00 0.00 43 1012.5
20260507164006 53 273 5.2 7.0 0.00 0.00 0.00 48 1012.6
20260507163007 52 340 2.6 5.2 0.00 0.00 0.00 48 1012.7
20260507160005 54 318 4.3 7.8 0.00 0.00 0.00 49 1012.8
20260507155005 53 318 5.2 7.8 0.00 0.00 0.00 51 1012.9
20260507153005 52 273 5.2 8.7 0.00 0.00 0.00 52 1013.0
20260507151004 52 183 4.3 7.8 0.00 0.00 0.00 50 1013.2
20260507150005 53 340 2.6 6.1 0.00 0.00 0.00 55 1013.2
20260507145005 53 48 2.6 5.2 0.00 0.00 0.00 55 1013.2
20260507144005 52 318 2.6 3.5 0.00 0.00 0.00 58 1013.3
20260507142005 52 228 1.7 2.6 0.00 0.00 0.00 59 1013.5
20260507141007 54 318 3.5 6.1 0.00 0.00 0.00 60 1014.0
20260507140006 53 318 2.6 3.5 0.00 0.00 0.00 58 1013.6
20260507135006 53 295 2.6 4.3 0.00 0.00 0.00 61 1013.8
20260507134006 51 3 3.5 5.2 0.00 0.00 0.00 64 1013.8
20260507133000 50 318 1.7 2.6 0.00 0.00 0.00 67 1013.9
20260507132001 49 295 3.5 5.2 0.00 0.00 0.00 63 1013.9
20260507131002 49 318 1.7 3.5 0.00 0.01 0.00 64 1014.2
20260507130003 49 205 0.9 1.7 0.00 0.02 0.00 70 1013.8
20260507125004 47 3 2.6 3.5 0.00 0.02 0.00 69 1013.8
20260507124004 47 3 0.9 1.7 0.00 0.02 0.00 72 1013.7
20260507123004 45 25 2.6 3.5 0.00 0.02 0.00 76 1013.7
20260507121003 46 3 1.7 2.6 0.00 0.03 0.00 81 1013.7
20260507120004 43 70 0.9 2.6 0.00 0.03 0.00 86 1013.8
20260507115004 41 160 0.9 0.9 0.00 0.03 0.00 92 1013.8
20260507114004 39 48 0.9 1.7 0.00 0.03 0.00 92 1013.8
20260507113005 40 25 0.9 0.9 0.00 0.03 0.00 95 1013.7
20260507111003 39 48 0.0 0.9 0.00 0.05 0.00 99 1013.8
20260507110004 37 93 0.0 0.0 0.00 0.06 0.00 99 1013.7
20260507105005 35 228 0.9 1.7 0.00 0.07 0.00 97 1013.5
20260507103002 33 273 0.9 1.7 0.00 0.08 0.00 97 1013.5
20260507102001 33 138 0.0 0.9 0.00 0.09 0.00 96 1013.3
20260507101007 33 160 0.9 1.7 0.00 0.09 0.00 95 1013.3
20260507100001 33 205 0.9 0.9 0.00 0.10 0.00 95 1013.3
20260507094005 34 183 0.0 0.9 0.00 0.13 0.00 95 1013.2
20260507093005 34 160 0.9 1.7 0.00 0.15 0.00 95 1013.7
20260507091005 35 70 0.9 0.9 0.00 0.19 0.00 94 1013.5
20260507090006 35 340 0.0 0.9 0.00 0.20 0.00 94 1013.6
20260507085004 35 183 0.0 0.9 0.00 0.22 0.00 94 1013.5
20260507084004 35 138 1.7 1.7 0.00 0.23 0.00 93 1013.4
20260507083004 35 138 0.9 1.7 0.00 0.25 0.00 93 1013.6
20260507082003 35 340 0.9 1.7 0.00 0.27 0.00 92 1013.7
20260507081004 35 70 0.9 1.7 0.00 0.29 0.00 91 1013.6
20260507080004 35 250 0.0 0.9 0.00 0.33 0.00 91 1013.8
20260507075004 36 228 1.7 2.6 0.00 0.34 0.00 91 1013.7
20260507074004 36 228 1.7 2.6 0.00 0.36 0.00 89 1013.6
20260507073005 37 228 0.9 1.7 0.00 0.38 0.00 88 1013.6
20260507072004 37 205 0.9 2.6 0.00 0.42 0.00 88 1013.7
20260507071005 38 228 1.7 2.6 0.00 0.43 0.00 87 1014.3
20260507065004 39 115 0.9 0.9 0.00 0.45 0.00 85 1013.9
20260507064005 39 3 0.9 2.6 0.00 0.46 0.00 83 1014.0
20260507062004 40 205 0.9 2.6 0.00 0.48 0.00 81 1014.1
20260507061005 41 160 1.7 2.6 0.00 0.50 0.00 81 1014.2
20260507060005 41 250 2.6 2.6 0.00 0.51 0.00 81 1014.1
20260507055006 41 228 1.7 3.5 0.00 0.52 0.00 81 1014.1
20260507054006 41 205 2.6 3.5 0.00 0.53 0.00 81 1014.2
20260507053006 41 205 2.6 2.6 0.00 0.54 0.00 80 1014.1
20260507052001 42 250 1.7 3.5 0.00 0.55 0.00 79 1014.2
20260507051002 42 183 2.6 4.3 0.00 0.55 0.00 79 1014.4
20260507050002 42 228 1.7 2.6 0.00 0.57 0.00 79 1014.4
20260507045002 42 205 2.6 3.5 0.00 0.61 0.00 78 1014.5
20260507044002 43 250 2.6 3.5 0.00 0.63 0.00 77 1014.6
20260507043003 43 250 3.5 4.3 0.00 0.65 0.00 76 1014.6
20260507042003 43 250 4.3 5.2 0.00 0.68 0.00 75 1014.8
20260507041004 43 250 4.3 5.2 0.00 0.72 0.00 75 1014.6
20260507040005 43 228 4.3 5.2 0.00 0.75 0.00 74 1014.5
20260507035004 43 250 4.3 7.0 0.00 0.78 0.75 72 1014.5
20260507034004 43 250 4.3 7.8 0.00 0.80 0.75 74 1014.4
20260507033005 43 250 2.6 4.3 0.00 0.81 0.75 74 1015.0
20260507032006 43 273 6.1 8.7 0.00 0.82 0.75 74 1014.3
20260507031001 43 273 4.3 6.1 0.00 0.84 0.75 74 1014.2
20260507030002 44 228 5.2 7.8 0.00 0.85 0.75 73 1014.2
20260507025003 44 228 2.6 4.3 0.00 0.86 0.75 72 1014.1
20260507024003 44 250 4.3 6.1 0.00 0.87 0.75 71 1014.1
20260507023004 44 273 3.5 6.1 0.00 0.89 0.75 71 1014.2
20260507022005 44 250 6.1 9.6 0.00 0.91 0.75 70 1014.0
20260507021006 44 273 3.5 6.1 0.00 0.93 0.75 69 1014.1
20260507020007 44 250 7.0 8.7 0.00 0.97 0.75 67 1013.9
20260507015007 44 250 7.0 10.4 0.00 1.06 0.75 66 1014.1
20260507014002 45 250 7.8 10.4 0.00 1.15 0.75 66 1014.1
20260507013003 45 228 7.8 9.6 0.00 1.21 0.75 65 1014.0
20260507012004 45 250 7.8 10.4 0.00 1.22 0.75 64 1014.0
20260507011005 45 273 5.2 7.8 0.00 1.24 0.75 63 1014.1
20260507010006 45 228 5.2 7.0 0.00 1.24 0.75 62 1014.1
20260507003005 46 273 4.3 8.7 0.00 1.30 0.75 65 1014.0
20260507002006 47 318 2.6 4.3 0.00 1.31 0.75 65 1013.9
20260507001007 47 250 5.2 7.8 0.00 1.33 0.75 59 1013.9
20260507000008 47 250 7.0 7.8 0.00 1.35 0.75 59 1013.8
20260506235002 47 250 6.1 9.6 0.00 1.36 0.75 59 1013.5
20260506234003 48 250 6.1 7.8 0.00 1.39 0.75 61 1013.3
20260506233003 48 340 2.6 4.3 0.00 1.40 0.75 61 1013.2
20260506232004 48 273 4.3 9.6 0.00 1.40 0.75 61 1013.4
20260506231004 48 295 6.1 13.9 0.00 1.41 0.75 62 1013.3
20260506230005 48 295 3.5 5.2 0.00 1.42 0.75 64 1013.3
20260506225006 48 318 1.7 4.3 0.00 1.46 0.75 63 1013.0
20260506223026 49 295 4.3 10.4 0.00 1.50 0.75 65 1013.0
20260506222007 49 273 7.0 10.4 0.00 1.50 0.75 64 1012.7
20260506220007 49 318 3.5 7.0 0.00 1.50 0.75 65 1012.6
20260506215001 49 318 6.1 10.4 0.00 1.51 0.75 65 1012.3
20260506214002 50 273 6.1 11.3 0.00 1.51 0.75 66 1012.3